Voltar ao catálogo

FENGYUN 1C DEB

AtivoSSO
NORAD 37460·DEBRIS·🇨🇳 China

Lançado May 10, 1999 de Taiyuan Satellite Launch Center

Loading…

Próximas Passagens (próximas 24 horas)

TLE

AtualizadoSource: Space-Track

Época: Sep 13, 2026, 05:44 UTC

1 37460U 99025EJE 26256.23925883  .00004437  00000-0  11010-2 0  9999
2 37460  98.3906  75.8018 0052520 170.8998 189.3161 14.51517758864676

Acompanhe FENGYUN 1C DEB em tempo real com AllMySat

Download on the App Store